Overview Statistics Trail Chart Weather Telemetry Raw packets
 

This is the latest recevied weather packets stored in our database for station/object 4S6DRJ-13. If no packets are shown the sender has not sent any weather packets the latest 10 day(s).

<< 456 457 458 459 460 461 462 >>
Time Temp. Humidity Pressure Rain* Wind** Luminosity Snow
1787761299 26.11° C 92% 1012 hPa 0 mm 1.34 m/s, 121° 0 W/m² -
1787761238 26.11° C 92% 1012 hPa 0 mm 1.79 m/s, 120° 0 W/m² -
1787761177 26.11° C 92% 1011.9 hPa 0 mm 0.45 m/s, 102° 0 W/m² -
1787761116 26.11° C 92% 1011.9 hPa 0 mm 0 m/s 0 W/m² -
1787761055 26.11° C 92% 1011.8 hPa 0 mm 0.45 m/s, 200° 0 W/m² -
1787760994 26.11° C 92% 1011.8 hPa 0 mm 0 m/s 0 W/m² -
1787760933 26.11° C 92% 1011.8 hPa 0 mm 0.89 m/s, 98° 0 W/m² -
1787760872 26.11° C 92% 1011.7 hPa 0 mm 0 m/s 0 W/m² -
1787760811 26.11° C 92% 1011.7 hPa 0 mm 1.34 m/s, 122° 0 W/m² -
1787760750 26.11° C 92% 1011.9 hPa 0 mm 0.89 m/s, 147° 0 W/m² -
1787760689 26.11° C 91% 1011.6 hPa 0 mm 0.89 m/s, 107° 0 W/m² -
1787760628 26.11° C 91% 1011.8 hPa 0 mm 0.89 m/s, 148° 0 W/m² -
1787760567 26.11° C 91% 1011.7 hPa 0 mm 0.89 m/s, 134° 0 W/m² -
1787760506 26.11° C 91% 1012.1 hPa 0 mm 0.45 m/s, 145° 0 W/m² -
1787760445 26.11° C 91% 1012 hPa 0 mm 0.89 m/s, 172° 0 W/m² -
1787760384 26.11° C 91% 1011.8 hPa 0 mm 0 m/s 0 W/m² -
1787760323 26.11° C 91% 1011.9 hPa 0 mm 0.89 m/s, 133° 0 W/m² -
1787760262 26.11° C 91% 1011.9 hPa 0 mm 0 m/s 0 W/m² -
1787760201 26.11° C 91% 1012 hPa 0 mm 0.45 m/s, 123° 0 W/m² -
1787760140 26.11° C 91% 1011.9 hPa 0 mm 0.45 m/s, 150° 0 W/m² -
1787760079 26.11° C 91% 1011.9 hPa 0 mm 0.45 m/s, 121° 0 W/m² -
1787760018 26.11° C 91% 1011.9 hPa 0 mm 0.45 m/s, 160° 0 W/m² -
1787759957 26.11° C 90% 1012 hPa 0 mm 0.89 m/s, 151° 0 W/m² -
1787759896 26.11° C 90% 1012 hPa 0 mm 0.45 m/s, 139° 0 W/m² -
1787759835 26.67° C 90% 1012 hPa 0 mm 0.89 m/s, 118° 0 W/m² -

* Rain latest hour (hover to see other rain measurements)
** Current wind speed in m/s (hover to see current wind gust speed)